Venice, Italy

10:45 AM CET on November 20, 2017 (GMT +0100)
Tessera

Weather History for LIPZ - April, 2013

Change the Weather History Date:

Tuesday, April 2, 2013

  Actual Average Record
Temperature  
Mean Temperature 46 °F -  
Max Temperature 51 °F 62 °F 68 °F (1997)
Min Temperature 42 °F 47 °F 42 °F (2002)
Degree Days  
Heating Degree Days 18    
Moisture  
Dew Point 36 °F    
Average Humidity 65    
Maximum Humidity 76    
Minimum Humidity 58    
Precipitation  
Precipitation 0.00 in 0.08 in - ()
Sea Level Pressure  
Sea Level Pressure 29.58 in    
Wind  
Wind Speed 10 mph ()    
Max Wind Speed 16 mph    
Max Gust Speed -    
Visibility 6.2 miles    
Events Rain    
Averages and records for this station are not official NWS values.
T = Trace of Precipitation, MM = Missing Value Source: Averaged Metar Reports

Daily Weather History Graph

Daily Weather History Graph

Search for Another Location

Airport or City:

Trip Planner

Search our weather history database for the weather conditions in past years. The results will help you decide how hot, cold, wet, or windy it might be!

Date:

Astronomy

Apr. 02, 2013 Rise Set
Actual Time 6:49 AM CEST 7:40 PM CEST
Civil Twilight 6:19 AM CEST 8:10 PM CEST
Nautical Twilight 5:43 AM CEST 8:46 PM CEST
Astronomical Twilight 5:06 AM CEST 9:23 PM CEST
Moon 1:41 AM CEST (4/2) 11:09 AM CEST (4/2)
Length of Visible Light 13h 51m
Length of Day
12h 51m
Waning Gibbous, 59% of the Moon is Illuminated
Apr 2
Waning Gibbous
Apr 3
Last Quarter
Apr 10
New
Apr 18
First Quarter
Apr 25
Full

Hourly Weather History & Observations

Time (CEST) Temp. Windchill Dew Point Humidity Pressure Visibility Wind Dir Wind Speed Gust Speed Precip Events Conditions
12:20 AM 44.6 °F 39.7 °F 35.6 °F 71% 29.68 in 6.2 mi NNE 9.2 mph - N/A   Scattered Clouds
12:50 AM 44.6 °F 39.2 °F 33.8 °F 66% 29.65 in 6.2 mi NNE 10.4 mph - N/A   Scattered Clouds
1:20 AM 44.6 °F 39.7 °F 35.6 °F 71% 29.65 in 6.2 mi NE 9.2 mph - N/A   Mostly Cloudy
1:50 AM 44.6 °F 38.4 °F 35.6 °F 71% 29.65 in 6.2 mi NE 12.7 mph - N/A   Mostly Cloudy
2:20 AM 44.6 °F 39.2 °F 35.6 °F 71% 29.65 in 6.2 mi NNE 10.4 mph - N/A   Mostly Cloudy
2:50 AM 44.6 °F 39.2 °F 35.6 °F 71% 29.62 in 6.2 mi NNE 10.4 mph - N/A   Mostly Cloudy
3:20 AM 44.6 °F 39.2 °F 35.6 °F 71% 29.62 in 6.2 mi NNE 10.4 mph - N/A   Mostly Cloudy
3:50 AM 44.6 °F 38.4 °F 35.6 °F 71% 29.59 in 6.2 mi North 12.7 mph - N/A Rain Light Rain
4:20 AM 44.6 °F 39.7 °F 35.6 °F 71% 29.59 in 6.2 mi NNE 9.2 mph - N/A Rain Light Rain
4:50 AM 44.6 °F 38.8 °F 35.6 °F 71% 29.59 in 6.2 mi NNE 11.5 mph - N/A Rain Light Rain
5:20 AM 44.6 °F 39.2 °F 33.8 °F 66% 29.56 in 6.2 mi NNE 10.4 mph - N/A   Mostly Cloudy
5:50 AM 44.6 °F 40.2 °F 35.6 °F 71% 29.56 in 6.2 mi NNE 8.1 mph - N/A   Mostly Cloudy
6:20 AM 44.6 °F 37.8 °F 33.8 °F 66% 29.56 in 6.2 mi NE 15.0 mph - N/A   Mostly Cloudy
6:50 AM 44.6 °F 37.4 °F 35.6 °F 71% 29.56 in 5.6 mi NE 16.1 mph - N/A   Mostly Cloudy
7:20 AM 42.8 °F 36.6 °F 33.8 °F 70% 29.56 in 6.2 mi NE 11.5 mph - N/A   Mostly Cloudy
7:50 AM 42.8 °F 37.0 °F 35.6 °F 76% 29.56 in 6.2 mi NNE 10.4 mph - N/A   Mostly Cloudy
8:20 AM 42.8 °F 36.2 °F 35.6 °F 76% 29.56 in 6.2 mi NNE 12.7 mph - N/A Rain Light Rain
8:50 AM 44.6 °F 38.8 °F 35.6 °F 71% 29.56 in 6.2 mi NNE 11.5 mph - N/A   Mostly Cloudy
9:20 AM 44.6 °F 38.8 °F 35.6 °F 71% 29.56 in 6.2 mi NNE 11.5 mph - N/A   Mostly Cloudy
9:50 AM 44.6 °F 38.4 °F 35.6 °F 71% 29.56 in 6.2 mi NNE 12.7 mph - N/A   Mostly Cloudy
10:20 AM 46.4 °F 40.4 °F 33.8 °F 62% 29.56 in 6.2 mi NE 13.8 mph - N/A   Mostly Cloudy
10:50 AM 48.2 °F - 35.6 °F 62% 29.56 in 6.2 mi NE 13.8 mph - N/A   Mostly Cloudy
11:20 AM 48.2 °F - 35.6 °F 62% 29.56 in 6.2 mi NE 16.1 mph - N/A Rain Light Rain
11:50 AM 50.0 °F - 37.4 °F 62% 29.56 in 6.2 mi NNE 12.7 mph - N/A   Mostly Cloudy
12:20 PM 50.0 °F - 37.4 °F 62% 29.53 in 6.2 mi NNE 13.8 mph - N/A   Mostly Cloudy
12:50 PM 50.0 °F - 37.4 °F 62% 29.53 in 6.2 mi NE 11.5 mph - N/A   Mostly Cloudy
1:20 PM 51.8 °F - 37.4 °F 58% 29.53 in 6.2 mi ENE 12.7 mph - N/A   Mostly Cloudy
1:50 PM 51.8 °F - 37.4 °F 58% 29.53 in 6.2 mi ENE 15.0 mph - N/A   Mostly Cloudy
2:20 PM 51.8 °F - 37.4 °F 58% 29.53 in 6.2 mi ENE 12.7 mph - N/A   Mostly Cloudy
2:50 PM 51.8 °F - 37.4 °F 58% 29.53 in 6.2 mi ENE 12.7 mph - N/A   Mostly Cloudy
3:20 PM 51.8 °F - 37.4 °F 58% 29.53 in 6.2 mi East 12.7 mph - N/A   Mostly Cloudy
3:50 PM 50.0 °F - 35.6 °F 58% 29.53 in 6.2 mi ENE 11.5 mph - N/A   Mostly Cloudy
4:20 PM 50.0 °F - 37.4 °F 62% 29.53 in 6.2 mi ENE 12.7 mph - N/A   Mostly Cloudy
4:50 PM 50.0 °F - 37.4 °F 62% 29.53 in 6.2 mi ENE 10.4 mph - N/A   Mostly Cloudy
5:20 PM 50.0 °F - 35.6 °F 58% 29.56 in 6.2 mi ENE 11.5 mph - N/A   Mostly Cloudy
5:50 PM 50.0 °F - 37.4 °F 62% 29.53 in 6.2 mi ENE 8.1 mph - N/A   Mostly Cloudy
6:20 PM 50.0 °F - 35.6 °F 58% 29.56 in 6.2 mi ENE 9.2 mph - N/A   Mostly Cloudy
6:50 PM 50.0 °F - 37.4 °F 62% 29.56 in 6.2 mi ENE 10.4 mph - N/A   Mostly Cloudy
7:20 PM 50.0 °F - 35.6 °F 58% 29.56 in 6.2 mi ENE 11.5 mph - N/A   Scattered Clouds
7:50 PM 48.2 °F - 35.6 °F 62% 29.59 in 6.2 mi ENE 10.4 mph - N/A   Scattered Clouds
8:20 PM 48.2 °F - 35.6 °F 62% 29.59 in 6.2 mi ENE 13.8 mph - N/A Rain Light Rain
8:50 PM 48.2 °F - 35.6 °F 62% 29.59 in 6.2 mi ENE 12.7 mph - N/A   Light Drizzle
9:20 PM 48.2 °F - 35.6 °F 62% 29.59 in 6.2 mi ENE 12.7 mph - N/A   Light Drizzle
9:50 PM 46.4 °F 41.9 °F 33.8 °F 62% 29.62 in 6.2 mi NE 9.2 mph - N/A   Scattered Clouds
10:20 PM 46.4 °F 41.5 °F 33.8 °F 62% 29.62 in 6.2 mi NE 10.4 mph - N/A   Scattered Clouds
10:50 PM 46.4 °F 41.9 °F 33.8 °F 62% 29.62 in 6.2 mi NE 9.2 mph - N/A   Mostly Cloudy
11:20 PM 46.4 °F 42.9 °F 33.8 °F 62% 29.62 in 6.2 mi NNE 6.9 mph - N/A   Mostly Cloudy
11:50 PM 46.4 °F 43.5 °F 33.8 °F 62% 29.62 in 6.2 mi NNE 5.8 mph - N/A   Mostly Cloudy